Location: Borbetomagus
(49.6328°N, 8.3592°E)
Time: 00:10:18
(UTC+00:00)

NOSS 3-1 (A) - Pass Details

Date: 19 May 2025
Orbit: 639 x 1568 km, 63.4° (Epoch: 20 June)

Event Time Altitude Azimuth Distance (km) Brightness Sun altitude
Exits shadow 22:37:39 - 239° (WSW) 2,639 5.6 -19.7°
Reaches altitude 10° 22:38:49 10° 242° (WSW) 2,195 5.2 -19.7°
Maximum altitude 22:43:42 56° 321° (NW) 958 3.7 -19.8°
Drops below altitude 10° 22:49:43 10° 40° (NE) 2,691 6.4 -20.0°
Sets 22:52:39 0° 44° (NE) 3,796 7.1 -20.1°
